Time,TemperatureF,DewpointF,PressureIn,WindDirection,WindDirectionDegrees,WindSpeedMPH,WindSpeedGustMPH,Humidity,HourlyPrecipIn,Conditions,Clouds,dailyrainin,SolarRadiationWatts/m^2,SoftwareType,DateUTC
2013-02-06 00:01:00,42.0,42.0,-100.00,WSW,254,10.0,19.0,99,0.00,,,0.00,0.000000,,2013-02-06 08:01:00,
2013-02-06 00:11:00,42.0,42.0,-100.00,WSW,254,10.0,19.0,99,0.00,,,0.00,0.000000,,2013-02-06 08:11:00,
2013-02-06 00:21:00,42.0,42.0,-100.00,WSW,254,10.0,19.0,99,0.00,,,0.00,0.000000,,2013-02-06 08:21:00,
2013-02-06 00:53:00,41.0,40.0,-100.00,West,268,14.0,19.0,98,0.00,,,0.00,0.000000,,2013-02-06 08:53:00,
2013-02-06 01:01:00,41.0,40.0,-100.00,West,268,14.0,19.0,98,0.00,,,0.00,0.000000,,2013-02-06 09:01:00,
2013-02-06 01:11:00,41.0,40.0,-100.00,West,268,14.0,19.0,98,0.00,,,0.00,0.000000,,2013-02-06 09:11:00,
2013-02-06 01:21:00,41.0,40.0,-100.00,West,268,14.0,19.0,98,0.00,,,0.00,0.000000,,2013-02-06 09:21:00,
2013-02-06 01:52:00,40.0,40.0,-100.00,West,264,11.0,17.0,99,0.00,,,0.00,0.000000,,2013-02-06 09:52:00,
2013-02-06 02:01:00,40.0,40.0,-100.00,West,264,11.0,17.0,99,0.00,,,0.00,0.000000,,2013-02-06 10:01:00,
2013-02-06 02:11:00,40.0,40.0,-100.00,West,264,11.0,17.0,99,0.00,,,0.00,0.000000,,2013-02-06 10:11:00,
2013-02-06 02:21:00,40.0,40.0,-100.00,West,264,11.0,17.0,99,0.00,,,0.00,0.000000,,2013-02-06 10:21:00,
2013-02-06 02:52:00,40.0,40.0,-100.00,West,264,7.0,14.0,99,0.00,,,0.00,0.000000,,2013-02-06 10:52:00,
2013-02-06 03:01:00,40.0,40.0,-100.00,West,264,7.0,14.0,99,0.00,,,0.00,0.000000,,2013-02-06 11:01:00,
2013-02-06 03:11:00,40.0,40.0,-100.00,West,264,7.0,14.0,99,0.00,,,0.00,0.000000,,2013-02-06 11:11:00,
2013-02-06 03:22:00,40.0,40.0,-100.00,West,264,7.0,14.0,99,0.00,,,0.00,0.000000,,2013-02-06 11:22:00,
2013-02-06 03:53:00,42.0,42.0,-100.00,WNW,300,2.0,7.0,99,0.00,,,0.00,0.000000,,2013-02-06 11:53:00,
2013-02-06 04:01:00,42.0,42.0,-100.00,WNW,300,2.0,7.0,99,0.00,,,0.00,0.000000,,2013-02-06 12:01:00,
2013-02-06 04:12:00,42.0,42.0,-100.00,WNW,300,2.0,7.0,99,0.00,,,0.00,0.000000,,2013-02-06 12:12:00,
2013-02-06 04:22:00,42.0,42.0,-100.00,WNW,300,2.0,7.0,99,0.00,,,0.00,0.000000,,2013-02-06 12:22:00,
2013-02-06 04:52:00,42.0,42.0,-100.00,West,272,6.0,10.0,99,0.00,,,0.00,0.000000,,2013-02-06 12:52:00,
2013-02-06 05:01:00,42.0,42.0,-100.00,West,272,6.0,10.0,99,0.00,,,0.00,0.000000,,2013-02-06 13:01:00,
2013-02-06 05:11:00,42.0,42.0,-100.00,West,272,6.0,10.0,99,0.00,,,0.00,0.000000,,2013-02-06 13:11:00,
2013-02-06 05:21:00,42.0,42.0,-100.00,West,272,6.0,10.0,99,0.00,,,0.00,0.000000,,2013-02-06 13:21:00,
2013-02-06 05:52:00,40.0,39.0,-100.00,WSW,258,8.0,11.0,98,0.00,,,0.00,0.000000,,2013-02-06 13:52:00,
2013-02-06 06:01:00,40.0,39.0,-100.00,WSW,258,8.0,11.0,98,0.00,,,0.00,0.000000,,2013-02-06 14:01:00,
2013-02-06 06:11:00,40.0,39.0,-100.00,WSW,258,8.0,11.0,98,0.00,,,0.00,0.000000,,2013-02-06 14:11:00,
2013-02-06 06:21:00,40.0,39.0,-100.00,WSW,258,8.0,11.0,98,0.00,,,0.00,0.000000,,2013-02-06 14:21:00,
2013-02-06 06:52:00,39.0,39.0,-100.00,West,265,8.0,11.0,100,0.00,,,0.00,0.000000,,2013-02-06 14:52:00,
2013-02-06 07:01:00,39.0,39.0,-100.00,West,265,8.0,11.0,100,0.00,,,0.00,0.000000,,2013-02-06 15:01:00,
2013-02-06 07:11:00,39.0,39.0,-100.00,West,265,8.0,11.0,100,0.00,,,0.00,0.000000,,2013-02-06 15:11:00,
2013-02-06 07:21:00,39.0,39.0,-100.00,West,265,8.0,11.0,100,0.00,,,0.00,0.000000,,2013-02-06 15:21:00,
2013-02-06 07:52:00,40.0,39.0,-100.00,WSW,257,9.0,13.0,95,0.00,,,0.00,4.000000,,2013-02-06 15:52:00,
2013-02-06 08:01:00,40.0,39.0,-100.00,WSW,257,9.0,13.0,95,0.00,,,0.00,4.000000,,2013-02-06 16:01:00,
2013-02-06 08:11:00,40.0,39.0,-100.00,WSW,257,9.0,13.0,95,0.00,,,0.00,4.000000,,2013-02-06 16:11:00,
2013-02-06 08:21:00,40.0,39.0,-100.00,WSW,257,9.0,13.0,95,0.00,,,0.00,4.000000,,2013-02-06 16:21:00,
2013-02-06 08:52:00,46.0,38.0,-100.00,WSW,252,8.0,11.0,74,0.00,,,0.00,78.000000,,2013-02-06 16:52:00,
2013-02-06 09:01:00,46.0,38.0,-100.00,WSW,252,8.0,11.0,74,0.00,,,0.00,78.000000,,2013-02-06 17:01:00,
2013-02-06 09:11:00,46.0,38.0,-100.00,WSW,252,8.0,11.0,74,0.00,,,0.00,78.000000,,2013-02-06 17:11:00,
2013-02-06 09:21:00,46.0,38.0,-100.00,WSW,252,8.0,11.0,74,0.00,,,0.00,78.000000,,2013-02-06 17:21:00,
2013-02-06 09:52:00,50.0,40.0,-100.00,WSW,247,5.0,9.0,68,0.00,,,0.00,251.000000,,2013-02-06 17:52:00,
2013-02-06 10:01:00,50.0,40.0,-100.00,WSW,247,5.0,9.0,68,0.00,,,0.00,251.000000,,2013-02-06 18:01:00,
2013-02-06 10:11:00,50.0,40.0,-100.00,WSW,247,5.0,9.0,68,0.00,,,0.00,251.000000,,2013-02-06 18:11:00,
2013-02-06 10:22:00,50.0,40.0,-100.00,WSW,247,5.0,9.0,68,0.00,,,0.00,251.000000,,2013-02-06 18:22:00,
2013-02-06 10:52:00,52.0,40.0,-100.00,WNW,297,4.0,7.0,64,0.00,,,0.00,412.000000,,2013-02-06 18:52:00,
2013-02-06 11:01:00,52.0,40.0,-100.00,WNW,297,4.0,7.0,64,0.00,,,0.00,412.000000,,2013-02-06 19:01:00,
2013-02-06 11:11:00,52.0,40.0,-100.00,WNW,297,4.0,7.0,64,0.00,,,0.00,412.000000,,2013-02-06 19:11:00,
2013-02-06 11:21:00,52.0,40.0,-100.00,WNW,297,4.0,7.0,64,0.00,,,0.00,412.000000,,2013-02-06 19:21:00,
2013-02-06 11:52:00,56.0,44.0,-100.00,West,276,4.0,10.0,65,0.00,,,0.00,525.000000,,2013-02-06 19:52:00,
2013-02-06 12:01:00,56.0,44.0,-100.00,West,276,4.0,10.0,65,0.00,,,0.00,525.000000,,2013-02-06 20:01:00,
2013-02-06 12:11:00,56.0,44.0,-100.00,West,276,4.0,10.0,65,0.00,,,0.00,525.000000,,2013-02-06 20:11:00,
2013-02-06 12:21:00,56.0,44.0,-100.00,West,276,4.0,10.0,65,0.00,,,0.00,525.000000,,2013-02-06 20:21:00,
2013-02-06 12:52:00,63.0,45.0,-100.00,North,351,3.0,9.0,52,0.00,,,0.00,581.000000,,2013-02-06 20:52:00,
2013-02-06 13:01:00,63.0,45.0,-100.00,North,351,3.0,9.0,52,0.00,,,0.00,581.000000,,2013-02-06 21:01:00,
2013-02-06 13:52:00,57.0,40.0,-100.00,WNW,283,7.0,11.0,53,-99.99,,,0.00,575.000000,,2013-02-06 21:52:00,
2013-02-06 14:01:00,57.0,40.0,-100.00,WNW,283,7.0,11.0,53,-99.99,,,0.00,575.000000,,2013-02-06 22:01:00,
2013-02-06 14:11:00,57.0,40.0,-100.00,WNW,283,7.0,11.0,53,-99.99,,,0.00,575.000000,,2013-02-06 22:11:00,
2013-02-06 14:21:00,57.0,40.0,-100.00,WNW,283,7.0,11.0,53,-99.99,,,0.00,575.000000,,2013-02-06 22:21:00,
2013-02-06 14:52:00,54.0,40.0,-100.00,West,279,8.0,14.0,58,0.00,,,0.00,514.000000,,2013-02-06 22:52:00,
2013-02-06 15:01:00,54.0,40.0,-100.00,West,279,8.0,14.0,58,0.00,,,0.00,514.000000,,2013-02-06 23:01:00,
2013-02-06 15:11:00,54.0,40.0,-100.00,West,279,8.0,14.0,58,0.00,,,0.00,514.000000,,2013-02-06 23:11:00,
2013-02-06 15:21:00,54.0,40.0,-100.00,West,279,8.0,14.0,58,0.00,,,0.00,514.000000,,2013-02-06 23:21:00,
2013-02-06 15:52:00,53.0,39.0,-100.00,West,277,9.0,13.0,60,0.00,,,0.00,398.000000,,2013-02-06 23:52:00,
2013-02-06 16:01:00,53.0,39.0,-100.00,West,277,9.0,13.0,60,0.00,,,0.00,398.000000,,2013-02-07 00:01:00,
2013-02-06 16:11:00,53.0,39.0,-100.00,West,277,9.0,13.0,60,0.00,,,0.00,398.000000,,2013-02-07 00:11:00,
2013-02-06 16:21:00,53.0,39.0,-100.00,West,277,9.0,13.0,60,0.00,,,0.00,398.000000,,2013-02-07 00:21:00,
2013-02-06 16:52:00,51.0,37.0,-100.00,West,273,13.0,17.0,59,0.00,,,0.00,248.000000,,2013-02-07 00:52:00,
2013-02-06 17:01:00,51.0,37.0,-100.00,West,273,13.0,17.0,59,0.00,,,0.00,248.000000,,2013-02-07 01:01:00,
2013-02-06 17:11:00,51.0,37.0,-100.00,West,273,13.0,17.0,59,0.00,,,0.00,248.000000,,2013-02-07 01:11:00,
2013-02-06 17:21:00,51.0,37.0,-100.00,West,273,13.0,17.0,59,0.00,,,0.00,248.000000,,2013-02-07 01:21:00,
2013-02-06 17:52:00,48.0,38.0,-100.00,WSW,251,8.0,19.0,69,0.00,,,0.00,73.000000,,2013-02-07 01:52:00,
2013-02-06 18:01:00,48.0,38.0,-100.00,WSW,251,8.0,19.0,69,0.00,,,0.00,73.000000,,2013-02-07 02:01:00,
2013-02-06 18:11:00,48.0,38.0,-100.00,WSW,251,8.0,19.0,69,0.00,,,0.00,73.000000,,2013-02-07 02:11:00,
2013-02-06 18:21:00,48.0,38.0,-100.00,WSW,251,8.0,19.0,69,0.00,,,0.00,73.000000,,2013-02-07 02:21:00,
2013-02-06 19:02:00,45.0,40.0,-100.00,West,263,7.0,12.0,82,0.00,,,0.00,2.000000,,2013-02-07 03:02:00,
2013-02-06 19:11:00,45.0,40.0,-100.00,West,263,7.0,12.0,82,0.00,,,0.00,2.000000,,2013-02-07 03:11:00,
2013-02-06 19:21:00,45.0,40.0,-100.00,West,263,7.0,12.0,82,0.00,,,0.00,2.000000,,2013-02-07 03:21:00,
2013-02-06 19:52:00,45.0,42.0,-100.00,West,259,11.0,16.0,90,0.00,,,0.00,0.000000,,2013-02-07 03:52:00,
2013-02-06 20:01:00,45.0,42.0,-100.00,West,259,11.0,16.0,90,0.00,,,0.00,0.000000,,2013-02-07 04:01:00,
2013-02-06 20:11:00,45.0,42.0,-100.00,West,259,11.0,16.0,90,0.00,,,0.00,0.000000,,2013-02-07 04:11:00,
2013-02-06 20:21:00,45.0,42.0,-100.00,West,259,11.0,16.0,90,0.00,,,0.00,0.000000,,2013-02-07 04:21:00,
2013-02-06 20:53:00,42.0,41.0,-100.00,WSW,251,12.0,20.0,95,0.00,,,0.00,0.000000,,2013-02-07 04:53:00,
2013-02-06 21:01:00,42.0,41.0,-100.00,WSW,251,12.0,20.0,95,0.00,,,0.00,0.000000,,2013-02-07 05:01:00,
2013-02-06 21:11:00,42.0,41.0,-100.00,WSW,251,12.0,20.0,95,0.00,,,0.00,0.000000,,2013-02-07 05:11:00,
2013-02-06 21:21:00,42.0,41.0,-100.00,WSW,251,12.0,20.0,95,0.00,,,0.00,0.000000,,2013-02-07 05:21:00,
2013-02-06 21:52:00,41.0,39.0,-100.00,West,264,9.0,18.0,93,0.00,,,0.00,0.000000,,2013-02-07 05:52:00,
2013-02-06 22:02:00,41.0,39.0,-100.00,West,264,9.0,18.0,93,0.00,,,0.00,0.000000,,2013-02-07 06:02:00,
2013-02-06 22:11:00,41.0,39.0,-100.00,West,264,9.0,18.0,93,0.00,,,0.00,0.000000,,2013-02-07 06:11:00,
2013-02-06 22:22:00,41.0,39.0,-100.00,West,264,9.0,18.0,93,0.00,,,0.00,0.000000,,2013-02-07 06:22:00,
2013-02-06 22:52:00,42.0,38.0,-100.00,West,270,13.0,17.0,84,0.00,,,0.00,0.000000,,2013-02-07 06:52:00,
2013-02-06 23:01:00,42.0,38.0,-100.00,West,270,13.0,17.0,84,0.00,,,0.00,0.000000,,2013-02-07 07:01:00,
2013-02-06 23:11:00,42.0,38.0,-100.00,West,270,13.0,17.0,84,0.00,,,0.00,0.000000,,2013-02-07 07:11:00,
2013-02-06 23:21:00,42.0,38.0,-100.00,West,270,13.0,17.0,84,0.00,,,0.00,0.000000,,2013-02-07 07:21:00,
2013-02-06 23:52:00,41.0,37.0,-100.00,West,272,12.0,17.0,86,0.00,,,0.00,0.000000,,2013-02-07 07:52:00,